Regional Weather Roundup
Issued by NWS

Home | Current Version | Previous Version | Text Only | Print | Product List | Glossary On
Versions: 1 2 3 4 5 6 7 8 9 10 11 12 13 14 15 16 17 18 19 20 21 22 23 24 25 26 27 28 29 30 31 32 33 34 35 36 37 38 39 40 41 42 43 44 45 46 47 48 49 50
000
ASUS43 KMPX 010610
RWRMN
WEATHER ROUNDUP FOR MINNESOTA
NATIONAL WEATHER SERVICE TWIN CITIES/CHANHASSEN MN
1200 AM CST MON MAR 01 2021


NOTE: "FAIR" INDICATES FEW OR NO CLOUDS BELOW 12,000 FEET WITH NO
SIGNIFICANT WEATHER AND/OR OBSTRUCTIONS TO VISIBILITY. N/A MEANS
CURRENT SKY AND/OR WEATHER CONDITIONS ARE NOT AVAILABLE.

MNZ060>063-068>070-010700-
   Twin Cities Metro

CITY           SKY/WX    TMP DP  RH WIND       PRES   REMARKS
TWIN CITIES    CLOUDY    21  12  68 W7        30.09R WCI  12
6HR MIN TEMP:  20; 6HR MAX TEMP:  25;

ST PAUL        MOCLDY    22  12  65 NW8       30.09S WCI  12
CRYSTAL        CLOUDY    20  11  68 W7        30.08R WCI  11
BLAINE         MOCLDY    21  12  68 NW7       30.07R WCI  13
LAKEVILLE      PTCLDY    19  14  79 W7        30.08R WCI  10
EDEN PRAIRIE   CLOUDY    20  13  74 W6        30.08R WCI  12
6HR MIN TEMP:  19; 6HR MAX TEMP:  23;

SOUTH ST PAUL  PTCLDY    22  12  64 NW9       30.08S WCI  12
LAKE ELMO      FAIR      19  10  68 MISG      30.07S
$$
MNZ001>005-007-008-013>017-022>024-027-028-010700-
   Northwest Minnesota

CITY           SKY/WX    TMP DP  RH WIND       PRES   REMARKS
BEMIDJI        MOCLDY     8   1  73 N9        30.09R WCI  -5
HALLOCK        CLEAR      1  -6  71 NE13      30.23R WCI -16
ROSEAU         CLEAR      5 -15  39 N10       30.19R WCI -10
WARROAD        CLEAR      0 -13  55 N17       30.18R WCI -21
THIEF RVR FALL PTCLDY     6  -1  73 N14       30.17R WCI -11
CROOKSTON      MOCLDY     7  -6  56 N13       30.20R WCI  -9
FOSSTON        MOCLDY     7  -2  66 N15       30.13R WCI -11
DETROIT LAKES  LGT SNOW  10   7  85 N16       30.10R HAZE    WCI  -7
MOORHEAD       LGT SNOW  12   7  79 NE15      30.18R WCI  -4
PARK RAPIDS    LGT SNOW  12   6  77 N12       30.08R WCI  -2
MAHNOMEN       CLOUDY    10   3  72 N10       30.13R WCI  -3
$$
MNZ006-009>011-018-025>026-010700-
   North Central Minnesota

CITY           SKY/WX    TMP DP  RH WIND       PRES   REMARKS
BAUDETTE       CLEAR      0 -12  57 NW15      30.13R WCI -19
FLAG ISLAND    CLEAR     -4 -18  50 N14       30.16R WCI -24
INTL FALLS     CLEAR      3  -5  69 NW10      30.08R WCI -12
6HR MIN TEMP:   3; 6HR MAX TEMP:  12;

WASKISH        PTCLDY     3  -2  78 NW9       30.12R WCI -11
BIG FORK       MOCLDY     9   0  66 NW5       30.12R WCI   0
GRAND RAPIDS   CLOUDY    11   2  67 NW13      30.07R WCI  -4
CRANE LAKE     CLEAR      5  -6  61 NW9G17    30.08R WCI  -9
ORR            PTCLDY     5  -6  61 CALM      30.02R
COOK           PTCLDY     7  -4  61 NW9       30.04R WCI  -7
WALKER         FLURRIES  10   4  75 N9G22     30.08R WCI  -2
$$
MNZ012-019>021-037-010700-
   Northeast Minnesota

CITY           SKY/WX    TMP DP  RH WIND       PRES   REMARKS
DULUTH         PTCLDY    12   1  61 NW12      30.00R WCI  -2
6HR MIN TEMP:  12; 6HR MAX TEMP:  21;

ELY            PTCLDY     7  -6  56 NW17G24   29.99R WCI -12
HIBBING        MOCLDY     9   0  67 NW20G26   30.02R WCI -10
EVELETH        MOCLDY    10   0  62 NW12G24   30.03R WCI  -4
DULUTH HARBOR  PTCLDY    18   5  57 NW12      30.08R WCI   5
TWO HARBORS    PTCLDY    10   0  61 W6        30.00R WCI   1
SILVER BAY     PTCLDY     9  -2  61 NW6       29.99R WCI  -1
GRAND MARAIS     N/A     11  -3  53 VRB5      30.00R WCI   3
G MARAIS ARPRT PTCLDY     3  -8  60 NW7       29.87R WCI  -9
$$
MNZ029>031-032-039>041-046>048-054>057-064-010700-
   West Central Minnesota

CITY           SKY/WX    TMP DP  RH WIND       PRES   REMARKS
FERGUS FALLS   LGT SNOW  12  10  92 N7        30.09R WCI   2
WHEATON        FLURRIES  18  12  79 N12       30.13R WCI   5
MORRIS         PTCLDY    19  10  68 N13       30.09R WCI   7
ALEXANDRIA     LGT SNOW  16  10  77 N10       30.06S WCI   4
ELBOW LAKE     LGT SNOW  15  12  88 N10       30.10R WCI   2
WADENA         LGT SNOW  10   9  92 N8        30.08R WCI  -1
GLENWOOD       CLOUDY    18  12  79 N8        30.07R WCI   7
APPLETON       CLOUDY    21  16  79 NE7       30.07R WCI  13
BENSON         CLOUDY    18  14  86 CALM      30.08S
ORTONVILLE     FLURRIES  19  16  86 NE13      30.07R WCI   7
MADISON        CLOUDY    21  18  86 CALM      30.07S
WILLMAR        FLURRIES  18  14  86 NE3       30.10S
$$
MNZ033>034-036-042>043-049>051-058-059-010700-
   Central Minnesota

CITY           SKY/WX    TMP DP  RH WIND       PRES   REMARKS
ST CLOUD       CLOUDY    19  10  68 NW7       30.07R WCI  10
6HR MIN TEMP:  18; 6HR MAX TEMP:  21;

SAUK CENTRE      N/A     17   9  71 N12       30.07R WCI   4
PAYNESVILLE    CLOUDY    19  16  86 NW3       30.08R
AITKIN         MOCLDY    12   3  67 NW5       30.07R WCI   4
PINE RIVER     LGT SNOW  14   9  79 N6        30.10R WCI   5
BRAINERD       CLOUDY    15   3  59 N12       30.08R WCI   2
STAPLES        LGT SNOW  16  10  79 N6        30.08R WCI   7
LONG PRAIRIE   LGT SNOW  18  10  73 N7        30.07R WCI   8
LITTLE FALLS   LGT SNOW  18   9  68 NW6       30.09R WCI   9
CAMP RIPLEY    FLURRIES  16   6  65 N9        30.09R WCI   5
LITCHFIELD     MOCLDY    19  16  86 CALM      30.08S
BUFFALO        CLOUDY    19  13  78 MISG      30.10R
MAPLE LAKE       N/A     21  15  76 CALM      30.09R
HUTCHINSON     CLOUDY    22  18  84 NW3       30.09R
$$
MNZ037-044-045-052-053-010700-
   East Central Minnesota

CITY           SKY/WX    TMP DP  RH WIND       PRES   REMARKS
PRINCETON      CLOUDY    19  10  68 NW3       30.07R
MORA           MOCLDY    18   9  68 NW10      30.08R WCI   6
CAMBRIDGE      CLOUDY    21   9  58 NW7       30.07R WCI  13
RUSH CITY      CLOUDY    19   9  63 N8        30.06S WCI   9
MOOSE LAKE     CLOUDY    14   3  62 NW3       30.04R
HINCKLEY       CLOUDY    19   7  58 NW7       30.06S WCI  10
CLOQUET        PTCLDY    10   1  67 NW7       30.01R WCI   0
MCGREGOR       CLOUDY    14   5  67 NW8       30.06R WCI   3
$$
MNZ071>073-080-081-089-090-097-098-010700-
   Southwest Minnesota

CITY           SKY/WX    TMP DP  RH WIND       PRES   REMARKS
MONTEVIDEO     CLOUDY    19  14  79 CALM      30.07R
GRANITE FALLS  CLOUDY    19  16  86 SE5       30.08F WCI  13
CANBY          CLOUDY    24  18  78 W6        30.05F WCI  16
MARSHALL       CLOUDY    22  16  78 SW8       30.07R WCI  12
REDWOOD FALLS  CLOUDY    19  14  81 CALM      30.08S
OLIVIA         LGT SNOW  18  16  93 SW5       30.07F WCI  11
PIPESTONE        N/A     18  16  93 SW7       30.04F WCI   8
WINDOM         CLEAR     19  16  86 CALM      30.07S
WORTHINGTON    CLEAR     22  18  85 SW14      30.06F WCI   9
JACKSON        CLEAR     21  18  86 SW7       30.09S WCI  13
TRACY          CLOUDY    21  14  75 SW8       30.05F WCI  12
SLAYTON        PTCLDY    18  14  85 SE3       30.06S
$$
MNZ065>067-074>077-082>085-091>093-010700-
   South Central Minnesota

CITY           SKY/WX    TMP DP  RH WIND       PRES   REMARKS
MANKATO        MOCLDY    21  19  92 SW6       30.09F WCI  13
NEW ULM        CLOUDY    21  18  86 SW7       30.09S WCI  13
ST JAMES       CLEAR     21  18  86 SW10      30.09S WCI  10
FAIRMONT       CLEAR     20  17  88 W9        30.11S WCI   9
GLENCOE        CLOUDY    21  16  83 W5        30.09R WCI  14
FARIBAULT      PTCLDY    18  16  93 SW5       30.08S WCI  11
OWATONNA       CLEAR     18  16  93 SW7       30.08S WCI   8
WASECA         CLEAR     19  18  93 SW7       30.11S WCI  10
ALBERT LEA     CLEAR     18  16  93 W3        30.09S
$$
MNZ078>079-086>088-094>096-010700-
   Southeast Minnesota

CITY           SKY/WX    TMP DP  RH WIND       PRES   REMARKS
ROCHESTER      PTCLDY    17  12  80 W14       30.06R WCI   3
6HR MIN TEMP:  17; 6HR MAX TEMP:  23;

RED WING       PTCLDY    19  14  79 W3        30.08S
STANTON        CLOUDY    19  15  83 SW5       30.07S WCI  13
DODGE CENTER   CLEAR     18  12  79 W9        30.06S WCI   6
WINONA         CLEAR     21  14  73 NW10      30.09S WCI  10
PRESTON        CLEAR     17  13  82 NW15      30.07R WCI   3
$$
ABBREVIATIONS USED IN REMARKS
   TC - TEMPERATURES IN CELSIUS
  WCI - WIND CHILL INDEX
   HX - HEAT INDEX
  VSB - VISIBILITY
$$



USA.gov is the U.S. government's official web portal to all federal, state and local government web resources and services.